Hourly Weather Barroquinha

Today, 21 April, Wednesday

Time Temperature Precipitation Wind Pressure Humidity
00:00 +24°C° 0.5 mm 1 mps 757 mmHg 97%
01:00 +24°C° 0.3 mm 1 mps 757 mmHg 97%
02:00 +24°C° 0.3 mm 1 mps 756 mmHg 97%
03:00 +24°C° 0.3 mm 1 mps 756 mmHg 97%
04:00 +24°C° 0.2 mm 1 mps 756 mmHg 97%
05:00 +24°C° 0.2 mm 1 mps 756 mmHg 97%
06:00 +24°C° 0.2 mm 1 mps 756 mmHg 97%
07:00 +26°C° 0.4 mm 1 mps 757 mmHg 91%
08:00 +28°C° 0.4 mm 1 mps 757 mmHg 85%
09:00 +29°C° 0.4 mm 1 mps 758 mmHg 79%
10:00 +30°C° 0.3 mm 1 mps 757 mmHg 75%
11:00 +31°C° 0.3 mm 2 mps 757 mmHg 70%
12:00 +31°C° 0.3 mm 3 mps 756 mmHg 65%
13:00 +31°C° 0.1 mm 3 mps 756 mmHg 66%
14:00 +31°C° 0.1 mm 2 mps 755 mmHg 67%
15:00 +31°C° 0.1 mm 2 mps 754 mmHg 67%
16:00 +29°C° 0.1 mm 2 mps 755 mmHg 74%
17:00 +28°C° 0.1 mm 2 mps 755 mmHg 81%
18:00 +26°C° 0.1 mm 2 mps 756 mmHg 89%
19:00 +26°C° 0.5 mm 1 mps 756 mmHg 91%
20:00 +25°C° 0.5 mm 1 mps 757 mmHg 94%
21:00 +25°C° 0.5 mm 1 mps 758 mmHg 96%
22:00 +25°C° 0.3 mm 1 mps 757 mmHg 97%
23:00 +25°C° 0.3 mm 1 mps 757 mmHg 97%

Tomorrow, 22 April, Thursday

Time Temperature Precipitation Wind Pressure Humidity
00:00 +22°C° 0.3 mm 0 mps 757 mmHg 97%
01:00 +22°C° 0.1 mm 0 mps 757 mmHg 98%
02:00 +22°C° 0.1 mm 0 mps 756 mmHg 98%
03:00 +22°C° 0.1 mm 0 mps 756 mmHg 98%
04:00 +22°C° 0 mm 0 mps 756 mmHg 98%
05:00 +22°C° 0 mm 0 mps 756 mmHg 98%
06:00 +22°C° 0 mm 0 mps 756 mmHg 98%
07:00 +24°C° 0.2 mm 0 mps 757 mmHg 92%
08:00 +26°C° 0.2 mm 0 mps 757 mmHg 86%
09:00 +27°C° 0.2 mm 0 mps 758 mmHg 80%
10:00 +30°C° 0.2 mm 1 mps 757 mmHg 74%
11:00 +31°C° 0.2 mm 1 mps 757 mmHg 68%
12:00 +32°C° 0.2 mm 2 mps 756 mmHg 62%
13:00 +31°C° 0.2 mm 2 mps 756 mmHg 67%
14:00 +31°C° 0.2 mm 2 mps 755 mmHg 71%
15:00 +30°C° 0.2 mm 2 mps 755 mmHg 75%
16:00 +29°C° 0.4 mm 2 mps 755 mmHg 80%
17:00 +28°C° 0.4 mm 2 mps 755 mmHg 84%
18:00 +26°C° 0.4 mm 2 mps 755 mmHg 89%
19:00 +26°C° 0 mm 1 mps 756 mmHg 90%
20:00 +26°C° 0 mm 1 mps 756 mmHg 90%
21:00 +26°C° 0 mm 1 mps 757 mmHg 90%
22:00 +25°C° 0 mm 1 mps 757 mmHg 92%
23:00 +25°C° 0 mm 1 mps 757 mmHg 93%

Day after tomorrow, 23 April, Friday

Time Temperature Precipitation Wind Pressure Humidity
00:00 +25°C° 0 mm 1 mps 756 mmHg 95%
01:00 +25°C° 0 mm 1 mps 756 mmHg 95%
02:00 +25°C° 0 mm 1 mps 756 mmHg 95%
03:00 +24°C° 0 mm 1 mps 755 mmHg 95%
04:00 +24°C° 0 mm 1 mps 756 mmHg 96%
05:00 +24°C° 0 mm 1 mps 756 mmHg 96%
06:00 +24°C° 0 mm 1 mps 756 mmHg 96%
07:00 +26°C° 0.1 mm 1 mps 757 mmHg 88%
08:00 +28°C° 0.1 mm 1 mps 757 mmHg 79%
09:00 +30°C° 0.1 mm 1 mps 757 mmHg 71%
10:00 +31°C° 0.9 mm 1 mps 757 mmHg 71%
11:00 +31°C° 0.9 mm 1 mps 757 mmHg 72%
12:00 +31°C° 0.9 mm 1 mps 756 mmHg 72%
13:00 +31°C° 1.3 mm 2 mps 756 mmHg 75%
14:00 +30°C° 1.3 mm 2 mps 755 mmHg 79%
15:00 +30°C° 1.3 mm 2 mps 754 mmHg 82%
16:00 +29°C° 2.7 mm 3 mps 754 mmHg 86%
17:00 +27°C° 2.7 mm 4 mps 755 mmHg 90%
18:00 +26°C° 2.7 mm 4 mps 755 mmHg 94%
19:00 +26°C° 0.7 mm 4 mps 755 mmHg 95%
20:00 +25°C° 0.7 mm 3 mps 756 mmHg 96%
21:00 +25°C° 0.7 mm 2 mps 756 mmHg 98%
22:00 +25°C° 0.1 mm 2 mps 756 mmHg 97%
23:00 +25°C° 0.1 mm 1 mps 756 mmHg 97%

24 April, Saturday

Time Temperature Precipitation Wind Pressure Humidity
00:00 +25°C° 0.1 mm 1 mps 756 mmHg 97%
01:00 +25°C° 0 mm 1 mps 755 mmHg 97%
02:00 +25°C° 0 mm 1 mps 755 mmHg 98%
03:00 +24°C° 0 mm 1 mps 755 mmHg 98%
04:00 +24°C° 0 mm 1 mps 755 mmHg 98%
05:00 +24°C° 0 mm 1 mps 755 mmHg 98%
06:00 +24°C° 0 mm 1 mps 755 mmHg 98%
07:00 +26°C° 0 mm 2 mps 756 mmHg 90%
08:00 +28°C° 0 mm 2 mps 756 mmHg 83%
09:00 +30°C° 0 mm 2 mps 757 mmHg 75%
10:00 +31°C° 0 mm 2 mps 756 mmHg 69%
11:00 +32°C° 0 mm 2 mps 756 mmHg 63%
12:00 +34°C° 0 mm 2 mps 755 mmHg 57%
13:00 +32°C° 0.9 mm 2 mps 755 mmHg 63%
14:00 +33°C° 0.9 mm 3 mps 754 mmHg 69%
15:00 +31°C° 0.9 mm 3 mps 754 mmHg 75%
16:00 +29°C° 2.4 mm 3 mps 754 mmHg 82%
17:00 +28°C° 2.4 mm 3 mps 754 mmHg 88%
18:00 +26°C° 2.4 mm 3 mps 755 mmHg 95%
19:00 +26°C° 3.4 mm 2 mps 755 mmHg 95%
20:00 +26°C° 3.4 mm 2 mps 756 mmHg 95%
21:00 +25°C° 3.4 mm 2 mps 756 mmHg 96%
22:00 +25°C° 1.4 mm 1 mps 756 mmHg 96%
23:00 +25°C° 1.4 mm 1 mps 756 mmHg 96%

25 April, Sunday

Time Temperature Precipitation Wind Pressure Humidity
00:00 +25°C° 1.4 mm 1 mps 756 mmHg 97%
01:00 +25°C° 0.1 mm 1 mps 756 mmHg 97%
02:00 +25°C° 0.1 mm 1 mps 755 mmHg 97%
03:00 +24°C° 0.1 mm 1 mps 755 mmHg 98%
04:00 +24°C° 0 mm 1 mps 755 mmHg 98%
05:00 +24°C° 0 mm 2 mps 755 mmHg 98%
06:00 +24°C° 0 mm 2 mps 756 mmHg 98%
07:00 +26°C° 0 mm 2 mps 756 mmHg 91%
08:00 +28°C° 0 mm 2 mps 756 mmHg 84%
09:00 +30°C° 0 mm 3 mps 757 mmHg 77%
10:00 +31°C° 0 mm 3 mps 756 mmHg 70%
11:00 +33°C° 0 mm 3 mps 756 mmHg 64%
12:00 +34°C° 0 mm 3 mps 755 mmHg 58%
13:00 +33°C° 0.3 mm 3 mps 755 mmHg 64%
14:00 +33°C° 0.3 mm 3 mps 754 mmHg 70%
15:00 +31°C° 0.3 mm 3 mps 753 mmHg 75%
16:00 +29°C° 1.2 mm 3 mps 754 mmHg 82%
17:00 +28°C° 1.2 mm 3 mps 754 mmHg 88%
18:00 +26°C° 1.2 mm 3 mps 754 mmHg 94%
19:00 +26°C° 0.7 mm 3 mps 755 mmHg 95%
20:00 +26°C° 0.7 mm 3 mps 756 mmHg 95%
21:00 +25°C° 0.7 mm 2 mps 756 mmHg 96%
22:00 +25°C° 0.3 mm 2 mps 756 mmHg 97%
23:00 +25°C° 0.3 mm 2 mps 756 mmHg 97%

26 April, Monday

Time Temperature Precipitation Wind Pressure Humidity
00:00 +25°C° 0.3 mm 2 mps 756 mmHg 98%
01:00 +25°C° 0 mm 2 mps 755 mmHg 98%
02:00 +24°C° 0 mm 2 mps 755 mmHg 98%
03:00 +24°C° 0 mm 2 mps 754 mmHg 98%
04:00 +24°C° 0 mm 2 mps 755 mmHg 98%
05:00 +24°C° 0 mm 2 mps 755 mmHg 98%
06:00 +24°C° 0 mm 3 mps 755 mmHg 98%
07:00 +26°C° 0 mm 3 mps 756 mmHg 91%
08:00 +28°C° 0 mm 3 mps 756 mmHg 83%
09:00 +29°C° 0 mm 3 mps 756 mmHg 76%
10:00 +31°C° 0.2 mm 3 mps 756 mmHg 71%
11:00 +33°C° 0.2 mm 3 mps 755 mmHg 67%
12:00 +34°C° 0.2 mm 4 mps 755 mmHg 62%
13:00 +33°C° 0.4 mm 3 mps 754 mmHg 66%
14:00 +31°C° 0.4 mm 3 mps 754 mmHg 71%
15:00 +31°C° 0.4 mm 3 mps 753 mmHg 75%
16:00 +29°C° 0.2 mm 3 mps 754 mmHg 80%
17:00 +28°C° 0.2 mm 4 mps 754 mmHg 86%
18:00 +27°C° 0.2 mm 4 mps 754 mmHg 92%
19:00 +26°C° 0.2 mm 3 mps 755 mmHg 93%
20:00 +26°C° 0.2 mm 3 mps 755 mmHg 95%
21:00 +25°C° 0.2 mm 3 mps 756 mmHg 97%
22:00 +25°C° 0.3 mm 3 mps 756 mmHg 97%
23:00 +25°C° 0.3 mm 3 mps 756 mmHg 97%
Show more